Startseite
Über Mich
AHP4
Galerie
Sehschlangen
Tourenbuch
Bookmarks
Elektronik
Bewertung
Geschichten
[Tagesmessung] [Jahreswerte] [Information]

Messwerte vom 08.06.2022

Die letzten Messwerte von 23:58:47 Uhr:
KategorieMesswert
Temperatur [°C]16
Luftdruck [mBar]991
Sonneneinstrahlung0
Wind [km/h]0 aus Südost
Niederschlag [l/m²]0
rel.Luftfeucht.82.6%
CO2 [ppm]509

Diagramme
Messwerte vom 08.06.2022
Tagesaggregation
KategorieMinimumMaximumSchnittSumme
Temperatur [°C]123019.6500
Luftdruck [mBar]990996992.8042
Sonneneinstrahlung247138.3292
Wind [km/h]17
rF [%]33.195.569
Niederschlag [l/m²]0
CO2 [ppm]394932584.3
Einordnung alsVegetationstag
Sommertag
Heißer Tag

Messungen an benachbarten Tagen: Zur Jahresaggregation 2022
Tabelle aller Messwerte
UhrzeitTemperatur [°C]Luftdruck [mBar]SonneWind [km/h]RichtungRegen [l/m²]rF [%]CO2 [ppm]
00:01:45 16 995 0 0 W 0 74.9 849
00:04:49 16 995 0 0 W 0 75.5 853
00:07:47 16 995 0 0 O 0 75.8 856
00:10:47 16 995 0 0 O 0 76.4 855
00:13:44 16 995 0 0 O 0 76.5 847
00:16:46 16 995 0 0 O 0 76.5 849
00:19:50 16 995 0 0 O 0 76.7 850
00:22:47 16 996 0 0 O 0 76.9 856
00:25:46 16 995 0 0 O 0 77.6 858
00:28:46 15 995 0 0 O 0 78.4 869
00:31:47 15 995 0 0 O 0 79.4 867
00:34:46 15 995 0 0 O 0 79.5 864
00:37:46 15 995 0 0 O 0 79.1 865
00:40:46 15 995 0 0 O 0 79.4 876
00:43:46 15 995 0 0 O 0 79.1 883
00:46:47 15 995 0 0 O 0 79.1 888
00:49:47 15 995 0 0 O 0 79.4 882
00:52:48 14 995 0 0 O 0 79.8 878
00:55:46 14 995 0 0 O 0 80.4 879
00:58:49 14 995 0 0 O 0 81 885
01:01:46 14 995 0 0 O 0 81.3 884
01:04:47 14 995 0 0 O 0 81.6 884
01:07:46 14 995 0 0 O 0 81.9 889
01:10:45 14 995 0 0 O 0 82.4 895
01:13:45 14 995 0 0 O 0 82.8 897
01:16:46 14 995 0 1 SO 0 83.6 893
01:19:47 15 995 0 0 S 0 84.1 896
01:22:45 15 995 0 1 S 0 84.4 902
01:25:48 15 995 0 0 S 0 84.1 899
01:28:50 15 995 0 3 S 0 84 901
01:31:46 15 995 0 0 S 0 83.8 899
01:34:47 15 995 0 2 S 0 83.5 904
01:37:48 15 995 0 0 S 0 83.7 912
01:40:48 15 995 0 0 S 0 83.3 911
01:43:45 15 995 0 0 S 0 83.2 913
01:46:50 15 995 0 2 SW 0 82.9 916
01:49:48 15 995 0 0 SO 0 82.7 921
01:52:49 15 995 0 0 SO 0 82.9 929
01:55:46 15 995 0 1 S 0 83.1 930
01:58:45 14 995 0 0 S 0 83.5 928
02:01:48 14 995 0 0 SW 0 83.7 925
02:04:48 14 995 0 0 SW 0 84.1 926
02:07:47 14 995 0 0 SW 0 84.3 917
02:10:48 14 995 0 0 SO 0 84.8 929
02:13:48 13 995 0 0 SW 0 85.4 924
02:16:47 13 995 0 0 SO 0 85.9 916
02:19:45 13 995 0 0 S 0 86.5 914
02:22:48 13 995 0 0 SO 0 86.5 925
02:25:47 13 995 0 0 SO 0 86.9 927
02:28:47 13 995 0 0 SO 0 87.3 925
02:31:48 13 995 0 0 SO 0 87.3 919
02:34:53 13 995 0 0 SO 0 87.8 909
02:37:47 13 995 0 0 SO 0 88.2 913
02:40:49 13 995 0 0 SO 0 89.4 922
02:43:47 12 995 0 0 SO 0 89.9 927
02:46:48 12 995 0 0 SO 0 89.4 925
02:49:47 12 995 0 0 SO 0 89.2 930
02:52:50 12 995 0 0 SO 0 89.6 928
02:55:47 12 995 0 0 SO 0 89.9 926
02:58:49 12 995 0 0 SO 0 90.8 932
03:01:47 12 995 0 0 SO 0 90.8 925
03:04:47 12 995 0 0 SO 0 90.6 930
03:07:48 12 995 0 0 SO 0 91.1 926
03:10:49 12 995 0 0 SO 0 91.5 923
03:13:48 12 995 0 0 SO 0 91.7 906
03:16:46 12 995 0 0 SO 0 91.8 914
03:19:46 12 995 0 1 SO 0 91.7 910
03:22:47 12 995 0 0 SO 0 91.7 899
03:25:48 12 995 0 0 SO 0 92 890
03:28:46 12 995 0 0 SO 0 92.4 892
03:31:47 12 995 0 0 SO 0 93 897
03:34:47 12 995 0 0 SO 0 94.4 902
03:37:47 12 995 0 0 SO 0 94.8 906
03:40:46 12 995 0 0 SO 0 94.7 912
03:43:48 12 995 0 0 SO 0 94.4 905
03:46:50 12 995 0 0 SO 0 93.9 899
03:49:46 12 995 0 0 SO 0 93.9 901
03:52:49 12 995 0 0 SO 0 93.9 896
03:55:49 12 995 0 0 SO 0 93.9 896
03:58:47 12 995 0 0 SO 0 93.7 896
04:01:47 12 995 0 0 SO 0 93.8 900
04:04:46 12 995 0 0 SO 0 94.1 899
04:07:48 13 995 0 0 SO 0 94.1 895
04:10:47 13 995 0 0 SO 0 94 896
04:13:47 13 995 0 0 SO 0 93.8 898
04:16:48 13 995 0 0 SO 0 93.5 899
04:19:49 13 994 0 0 SO 0 93.9 905
04:22:49 13 995 0 0 SO 0 94.1 914
04:25:47 13 994 0 0 SO 0 94.1 912
04:28:45 13 995 0 0 SO 0 94.4 919
04:31:48 13 995 4 0 NW 0 94.4 916
04:34:46 13 995 5 0 NW 0 94.4 917
04:37:49 13 995 8 0 NW 0 93.9 909
04:40:48 13 995 11 0 SO 0 93.5 910
04:43:48 13 995 14 0 SO 0 93.4 910
04:46:48 13 995 19 0 SO 0 93.4 906
04:49:47 13 994 26 0 SO 0 93.4 913
04:52:45 13 995 33 0 SO 0 93.4 922
04:55:49 13 995 39 0 SO 0 93.7 920
04:58:46 13 995 45 0 SO 0 94.1 914
05:01:47 13 994 52 0 SO 0 94.6 919
05:04:48 13 995 59 0 SO 0 94.5 916
05:07:48 13 995 63 0 SO 0 94.4 916
05:10:48 13 994 68 0 SO 0 94.1 910
05:13:47 13 994 74 0 SO 0 94 901
05:16:47 13 994 79 0 SO 0 94 896
05:19:46 13 995 86 1 O 0 94.6 895
05:22:47 13 995 93 0 O 0 95.5 892
05:25:49 13 995 100 0 O 0 95.2 897
05:28:47 13 995 108 0 O 0 95 897
05:31:48 13 995 114 0 O 0 94.9 895
05:34:47 13 994 123 0 O 0 94.7 887
05:37:46 13 995 129 1 O 0 94.7 892
05:40:47 13 995 134 0 O 0 95 893
05:43:47 13 995 138 0 O 0 95 890
05:46:47 13 995 143 0 O 0 95.1 885
05:49:48 13 995 143 0 O 0 94.8 891
05:52:49 13 994 140 0 O 0 94.6 897
05:55:46 14 995 146 0 O 0 94.5 899
05:58:48 14 995 152 0 O 0 94.4 898
06:01:47 14 995 148 0 O 0 94.5 897
06:04:48 14 995 149 0 N 0 94.4 896
06:07:48 14 994 151 0 N 0 94.2 899
06:10:48 14 995 151 0 O 0 94.2 893
06:13:47 14 994 158 0 N 0 94.2 885
06:16:49 14 995 163 0 NO 0 94.3 884
06:19:48 14 994 166 0 N 0 94.3 890
06:22:49 14 995 169 0 NO 0 93.9 896
06:25:47 14 995 171 0 N 0 93.9 910
06:28:48 14 995 170 0 N 0 93.7 910
06:31:46 14 995 169 0 N 0 93.6 900
06:34:49 14 995 171 0 NO 0 93.5 896
06:37:47 14 995 173 0 NO 0 93.4 896
06:40:47 15 994 171 0 NO 0 93 897
06:43:47 15 995 174 0 NO 0 92.7 898
06:46:49 15 994 179 0 NO 0 92.5 899
06:49:48 15 995 181 0 NW 0 92.3 908
06:52:50 15 995 181 0 NW 0 92 908
06:55:48 15 995 185 0 SW 0 91.9 920
06:58:49 15 995 189 0 SW 0 91.7 923
07:01:48 15 995 189 0 SW 0 91 917
07:04:48 16 995 190 0 SW 0 90.6 905
07:07:50 16 995 193 0 SW 0 90.5 905
07:10:47 16 995 195 0 SW 0 90.2 901
07:13:49 16 995 195 0 SW 0 90 911
07:16:49 16 995 155 0 SW 0 90 817
07:19:49 16 995 155 0 SW 0 89.9 539
07:22:48 16 995 156 0 W 0 89.4 480
07:25:48 16 995 148 2 S 0 88.3 471
07:28:49 16 995 189 0 S 0 87.6 468
07:31:48 17 994 195 1 NW 0 87.4 486
07:34:49 17 995 201 0 NW 0 87.5 480
07:37:50 17 995 202 0 NW 0 87.7 483
07:40:45 17 994 202 2 0 88 477
07:43:53 17 994 202 3 NW 0 86.2 480
07:46:48 18 994 202 0 W 0 85.8 479
07:49:47 18 994 204 1 S 0 85.2 478
07:52:45 18 995 206 1 S 0 84.7 474
07:55:47 17 994 205 0 S 0 83.8 480
07:58:46 17 995 204 0 S 0 83.7 483
08:01:49 17 994 202 1 S 0 84.2 486
08:04:47 17 994 202 0 S 0 84.4 480
08:07:49 18 995 205 2 SO 0 84.3 481
08:10:48 18 995 206 3 SO 0 84 473
08:13:48 18 995 203 3 S 0 83.8 471
08:16:48 18 994 204 0 S 0 83.5 474
08:19:47 18 995 205 4 SO 0 83.5 474
08:22:48 18 994 209 2 SO 0 83.5 484
08:25:46 18 995 210 0 O 0 83.7 480
08:28:51 18 995 207 1 SO 0 83.4 483
08:31:51 18 995 208 0 SO 0 82.6 483
08:34:48 18 995 212 0 W 0 82.4 479
08:37:51 19 994 213 0 O 0 82.4 475
08:40:48 19 995 212 5 W 0 82 476
08:43:49 19 994 212 2 SW 0 80.9 477
08:46:49 19 995 211 0 SW 0 80.9 472
08:49:49 19 995 213 6 W 0 80.6 472
08:52:48 19 995 215 0 S 0 79.2 476
08:55:50 19 994 217 1 SO 0 79.8 483
08:58:48 19 994 217 1 S 0 79.5 483
09:01:48 20 994 214 1 SO 0 78.7 485
09:04:48 20 995 211 3 NW 0 78.2 486
09:07:51 20 995 213 6 SW 0 79.1 490
09:10:47 20 995 214 5 W 0 79.1 485
09:13:49 20 994 216 1 SO 0 78.1 483
09:16:47 20 995 220 1 SO 0 76.5 480
09:19:49 20 995 221 0 SW 0 75.3 474
09:22:47 21 995 223 1 W 0 73.8 483
09:25:52 21 994 219 8 SW 0 70.1 489
09:28:48 21 995 211 1 W 0 69.9 489
09:31:48 21 994 206 3 SW 0 70.3 487
09:34:49 20 995 213 0 W 0 72.6 480
09:37:47 20 994 215 0 O 0 73.6 477
09:40:49 20 994 215 1 NW 0 75.1 477
09:43:49 20 994 223 0 SW 0 75.8 482
09:46:47 20 994 223 0 S 0 75.1 492
09:49:48 20 994 222 2 SW 0 75.6 492
09:52:48 21 994 215 4 NW 0 74.7 480
09:55:48 21 994 217 2 W 0 75.8 472
09:58:47 21 994 208 1 NO 0 74.4 477
10:01:49 21 994 208 3 S 0 73.2 481
10:04:48 21 995 205 2 SW 0 72.4 480
10:07:48 20 994 203 2 W 0 72.3 490
10:10:47 20 994 203 2 O 0 71.9 489
10:13:48 19 994 210 3 SO 0 73.3 486
10:16:49 19 994 217 3 W 0 72.7 480
10:19:48 19 994 222 0 W 0 73 480
10:22:48 20 994 226 3 S 0 73.2 487
10:25:48 20 994 226 0 SW 0 73.3 486
10:28:51 21 994 218 8 SW 0 72.5 487
10:31:49 21 994 209 7 S 0 71.1 478
10:34:50 21 994 209 1 SO 0 70.6 486
10:37:48 20 994 214 3 SW 0 70.4 483
10:40:50 20 993 216 0 SO 0 72.5 483
10:43:48 20 994 220 4 S 0 72.4 483
10:46:46 20 994 220 4 S 0 71.9 481
10:49:34 19 993 221 2 SW 0 63.4 480
10:52:49 20 994 221 6 NW 0 68.4 478
10:55:48 20 994 222 3 S 0 67.9 471
10:58:47 21 993 222 7 S 0 68.5 475
11:01:49 21 993 223 2 SW 0 67.8 475
11:04:46 21 993 222 1 N 0 67.3 480
11:07:48 21 993 225 5 SW 0 67.4 480
11:10:48 22 993 223 3 W 0 66.1 477
11:13:47 22 993 221 5 O 0 62.3 477
11:16:47 22 993 220 1 SW 0 62 477
11:19:49 21 993 222 1 NO 0 63.8 480
11:22:49 22 992 223 2 SW 0 64.5 480
11:25:49 22 993 225 1 S 0 65.7 483
11:28:47 22 993 224 3 SW 0 65.7 483
11:31:51 22 993 225 5 SW 0 60.9 480
11:34:47 23 993 225 3 S 0 60.7 472
11:37:47 23 993 225 3 S 0 60.4 474
11:40:47 23 993 226 0 S 0 59 475
11:43:49 23 994 226 4 O 0 59.7 480
11:46:49 23 992 225 6 S 0 58.9 478
11:49:48 23 993 225 5 S 0 58 471
11:52:47 23 993 226 7 SO 0 55 463
11:55:46 23 992 226 3 S 0 54.1 468
11:58:48 24 992 226 4 SO 0 53.9 474
12:01:46 24 992 225 7 O 0 54.9 478
12:04:47 24 993 226 3 SW 0 52.7 468
12:07:48 24 993 226 0 SO 0 54.4 474
12:10:48 25 993 226 1 W 0 55.4 465
12:13:30 23 992 227 4 W 0 45.7 477
12:16:47 25 993 227 2 S 0 52 469
12:19:48 25 993 226 0 S 0 52.7 468
12:22:30 23 993 226 6 S 0 40 464
12:25:48 25 992 226 2 SW 0 49.6 471
12:28:48 25 992 225 3 SW 0 51.1 471
12:31:49 26 991 224 5 W 0 49.8 469
12:34:49 26 992 224 2 S 0 47 470
12:37:48 26 992 221 5 SO 0 47 475
12:40:31 25 992 222 4 SW 0 40 467
12:43:48 26 992 219 3 W 0 45.6 463
12:46:47 26 991 218 5 S 0 46.8 466
12:49:50 27 991 220 4 S 0 46.8 472
12:52:48 27 992 222 5 S 0 42.5 468
12:55:48 27 992 220 7 SW 0 39.4 468
12:58:50 27 992 217 3 SW 0 40.9 469
13:01:48 27 992 217 10 S 0 41.5 471
13:04:44 27 991 220 1 S 0 43.1 471
13:07:49 28 991 213 1 NW 0 44 469
13:10:49 27 991 221 9 W 0 42.8 468
13:13:47 27 992 223 9 S 0 43.6 468
13:16:47 27 992 226 2 S 0 45.1 469
13:19:48 28 992 224 4 W 0 45.5 468
13:22:49 28 991 222 2 S 0 44.3 471
13:25:48 28 992 226 2 NW 0 42 468
13:28:49 29 992 229 4 SW 0 43.5 471
13:31:47 29 992 231 2 SO 0 40.6 471
13:34:49 28 991 232 0 O 0 40.2 468
13:37:47 28 991 231 6 SW 0 40.4 462
13:40:50 29 992 232 3 S 0 38.2 463
13:43:48 29 992 231 3 S 0 38.1 471
13:46:28 28 991 231 1 N 0 40 471
13:49:49 29 992 231 6 W 0 41.4 460
13:52:49 29 991 231 2 S 0 37.7 462
13:55:47 29 991 230 2 O 0 37.5 460
13:58:47 29 991 231 6 S 0 37.4 460
14:01:47 29 991 231 4 O 0 37.2 457
14:04:48 28 991 231 1 O 0 40.6 457
14:07:46 28 991 232 9 W 0 41.3 456
14:10:47 29 991 234 4 W 0 39.9 451
14:13:45 29 991 224 1 N 0 40.5 456
14:16:46 28 991 235 1 O 0 40.7 457
14:19:49 28 991 239 1 W 0 40.5 455
14:22:48 29 991 239 5 SO 0 39.6 453
14:25:49 29 992 240 0 NO 0 37.5 448
14:28:49 29 991 241 4 NW 0 36.2 448
14:31:49 29 991 242 6 SO 0 37.4 452
14:34:47 29 991 243 2 W 0 37.5 456
14:37:47 30 991 243 5 S 0 34.8 454
14:40:47 30 992 242 2 S 0 35 454
14:43:49 29 991 235 2 SO 0 35.5 462
14:46:49 29 991 237 14 SO 0 36.1 463
14:49:47 28 991 237 2 SO 0 36.7 453
14:52:48 28 991 238 13 S 0 37.2 450
14:55:46 28 991 240 4 S 0 38.7 451
14:58:46 28 991 244 2 S 0 41.4 450
15:01:49 29 991 244 2 S 0 39.3 450
15:04:46 30 991 243 7 N 0 36.8 451
15:07:47 28 991 242 2 W 0 35.8 453
15:10:46 28 991 239 4 S 0 37.3 452
15:13:47 27 991 232 5 W 0 41.1 445
15:16:49 27 991 231 4 S 0 40.3 448
15:19:48 27 991 242 1 SW 0 41.4 450
15:22:48 28 991 245 5 SO 0 42.3 454
15:25:46 29 991 244 2 SW 0 40.7 454
15:28:48 30 991 245 2 S 0 36.2 454
15:31:47 30 991 245 3 SW 0 35.4 451
15:34:47 30 991 245 13 SW 0 33.1 448
15:37:48 30 991 246 1 W 0 35.3 442
15:40:48 30 991 246 1 SO 0 35.5 439
15:43:47 30 991 247 5 W 0 34.3 445
15:46:47 30 991 247 4 W 0 33.5 441
15:49:48 30 991 243 3 S 0 35.6 436
15:52:46 30 991 247 0 S 0 35.7 436
15:55:47 30 991 238 17 W 0 34.1 442
15:58:46 30 991 241 1 O 0 34.4 442
16:01:49 29 991 244 3 W 0 35 445
16:04:47 29 991 239 5 W 0 35.3 447
16:07:47 29 991 236 1 W 0 35.5 445
16:10:49 28 991 236 10 SW 0 39.6 439
16:13:48 28 991 236 3 S 0 41 436
16:16:50 28 991 239 10 SW 0 42.2 433
16:19:49 28 991 237 12 S 0 42.2 430
16:22:46 28 991 234 7 W 0 41.7 427
16:25:47 27 991 245 4 S 0 40 430
16:28:47 27 991 226 2 S 0 39.9 439
16:31:47 27 991 217 6 S 0 40.7 442
16:34:46 26 991 213 4 S 0 41.4 442
16:37:47 26 991 211 8 SO 0 41.6 431
16:40:45 26 991 215 4 S 0 41.5 407
16:43:49 25 991 221 6 SO 0 43.2 406
16:46:49 25 991 219 4 SO 0 44 407
16:49:49 25 991 220 2 SW 0 44.2 407
16:52:48 25 991 223 5 SW 0 43.8 410
16:55:47 25 991 225 4 S 0 43.2 409
16:58:48 25 991 228 2 SW 0 44.1 410
17:01:51 25 991 240 3 SW 0 44.5 409
17:04:46 25 991 239 1 S 0 44.8 406
17:07:48 25 991 244 3 SW 0 44.6 410
17:10:48 26 991 243 3 W 0 44.9 410
17:13:48 26 991 237 1 SW 0 45.6 409
17:16:47 25 991 234 4 W 0 46 409
17:19:47 25 991 232 0 N 0 46.9 409
17:22:48 24 991 232 0 SW 0 47.7 406
17:25:48 24 991 235 1 SW 0 48.4 407
17:28:49 24 991 228 2 NO 0 48.1 410
17:31:50 24 991 223 2 S 0 48.4 418
17:34:47 24 990 223 1 SO 0 49.2 412
17:37:49 24 990 223 1 SO 0 49.2 409
17:40:48 24 991 226 0 S 0 49.2 412
17:43:47 24 990 227 0 O 0 49.4 415
17:46:46 24 990 199 0 S 0 49.6 418
17:49:49 24 991 199 1 SW 0 49.5 412
17:52:46 24 991 197 1 S 0 49.8 415
17:55:47 24 991 193 6 S 0 50.7 411
17:58:48 24 990 224 0 SW 0 50.6 404
18:01:51 24 991 225 3 SO 0 50.2 405
18:04:49 24 990 224 3 S 0 50.8 406
18:07:50 24 990 223 2 SO 0 50.9 404
18:10:48 24 990 222 1 SO 0 51.2 407
18:13:47 24 991 227 3 SO 0 51.2 406
18:16:47 24 990 227 1 S 0 50.5 404
18:19:48 24 991 227 3 S 0 50.4 403
18:22:46 24 990 237 3 S 0 50.4 404
18:25:50 24 990 243 3 SO 0 50.1 404
18:28:47 25 991 233 2 S 0 50 407
18:31:48 25 990 244 5 S 0 49.4 406
18:34:48 25 990 234 2 S 0 48.5 404
18:37:50 25 990 234 6 S 0 47.6 407
18:40:48 25 990 231 2 O 0 47.9 403
18:43:48 25 990 227 4 SO 0 48.4 403
18:46:49 24 991 223 3 SO 0 48.4 407
18:49:50 24 991 218 0 SO 0 50 404
18:52:49 24 990 214 0 SO 0 50.3 406
18:55:49 24 990 209 4 SO 0 51.1 407
18:58:48 24 991 203 3 S 0 51.2 407
19:01:47 23 991 197 0 S 0 51.3 404
19:04:49 23 990 195 1 O 0 52.4 404
19:07:46 23 991 189 3 SO 0 53.3 404
19:10:50 23 990 181 2 S 0 53.2 404
19:13:47 23 991 164 0 SW 0 52.7 406
19:16:48 23 990 144 7 S 0 52.3 404
19:19:46 23 990 142 1 S 0 52 404
19:22:47 22 990 145 3 SO 0 52.9 404
19:25:49 22 990 155 0 SO 0 53.4 404
19:28:48 22 991 150 1 SO 0 56.1 406
19:31:47 22 991 131 3 S 0 56.6 401
19:34:47 22 991 130 1 S 0 58.9 407
19:37:47 21 991 142 0 O 0 60.4 406
19:40:49 21 991 151 0 S 0 62.2 404
19:43:47 21 991 158 2 S 0 63.1 404
19:46:47 20 991 164 0 W 0 64 407
19:49:49 20 991 166 0 W 0 64.6 406
19:52:49 20 991 164 0 SW 0 64.9 405
19:55:49 20 991 162 0 SW 0 65.3 404
19:58:48 20 991 164 0 NW 0 65.4 407
20:01:51 20 991 168 0 NW 0 65.5 407
20:04:48 20 991 171 0 NW 0 65.7 407
20:07:48 20 990 176 0 S 0 65.7 404
20:10:47 20 991 182 0 S 0 65.6 405
20:13:48 20 991 186 0 S 0 65.1 404
20:16:47 20 991 189 0 S 0 65.1 404
20:19:47 20 990 189 0 S 0 65.1 407
20:22:48 20 991 186 0 S 0 64.8 407
20:25:49 20 991 181 0 SW 0 64.2 404
20:28:52 20 991 175 0 SW 0 63.6 404
20:31:49 20 991 172 0 SW 0 63.6 409
20:34:49 20 991 166 0 SW 0 63.5 404
20:37:47 20 991 158 2 SW 0 63.7 407
20:40:48 20 991 147 3 NO 0 63.8 401
20:43:49 20 991 129 2 SO 0 63.5 406
20:46:49 19 991 125 2 NW 0 64.7 404
20:49:48 19 991 128 0 W 0 65.9 401
20:52:47 19 991 127 2 S 0 67.1 404
20:55:48 19 991 122 2 SO 0 68 407
20:58:50 19 991 120 1 SW 0 69.5 407
21:01:48 19 991 117 1 NO 0 70.4 404
21:04:51 19 991 111 2 SO 0 70.4 407
21:07:48 19 991 106 1 S 0 70.7 406
21:10:51 19 991 99 4 SO 0 70.8 407
21:13:48 18 991 93 0 SW 0 71.1 404
21:16:45 18 991 81 1 S 0 71.6 406
21:19:47 18 991 69 2 S 0 71.5 404
21:22:47 18 991 57 1 S 0 71.6 404
21:25:47 18 991 49 7 SO 0 72.1 404
21:28:48 18 991 44 0 SO 0 72.5 404
21:31:46 18 991 38 1 O 0 72.4 407
21:34:48 18 991 34 0 W 0 72.5 407
21:37:49 18 991 29 0 SW 0 72.7 406
21:40:46 18 991 23 1 S 0 73.6 404
21:43:47 18 991 15 2 SO 0 73.7 404
21:46:46 18 991 13 0 O 0 73.9 404
21:49:47 17 991 11 0 O 0 74.6 407
21:52:45 17 991 9 2 W 0 74.7 406
21:55:44 17 991 7 0 S 0 74.6 403
21:58:46 17 991 5 0 NW 0 74.5 394
22:01:44 17 991 4 0 O 0 74.5 407
22:04:46 17 991 3 1 S 0 74.7 403
22:07:47 17 991 0 0 SO 0 74.7 406
22:10:48 17 991 0 0 SO 0 74.8 407
22:13:45 17 991 0 0 S 0 75.2 407
22:16:47 17 991 0 0 SO 0 75.2 406
22:19:49 17 991 0 0 SO 0 75.7 401
22:22:46 17 991 3 0 S 0 75.6 406
22:25:45 17 991 0 0 S 0 75.7 404
22:28:47 16 991 0 0 O 0 75.8 407
22:31:46 16 991 0 0 S 0 76.3 407
22:34:44 16 991 0 1 S 0 76.5 409
22:37:46 16 991 0 0 S 0 76.6 415
22:40:46 16 991 0 0 S 0 77 418
22:43:47 16 991 0 0 S 0 77.1 427
22:46:47 16 991 0 1 S 0 77.4 439
22:49:47 16 991 0 2 W 0 77.6 454
22:52:45 16 991 0 0 S 0 77.8 460
22:55:46 16 991 0 0 W 0 77.7 457
22:58:46 16 991 0 0 S 0 77.8 449
23:01:45 16 991 0 0 O 0 77.6 421
23:04:49 16 991 0 0 SO 0 78.1 424
23:07:47 16 991 0 1 W 0 78.1 422
23:10:50 16 991 0 1 SO 0 78.3 436
23:13:49 16 992 0 2 SW 0 78.6 442
23:16:46 16 991 0 1 SW 0 78.8 487
23:19:47 16 991 0 1 SW 0 78.7 500
23:22:46 16 991 0 0 N 0 78.7 507
23:25:46 16 991 0 0 O 0 78.9 501
23:28:46 16 991 0 0 S 0 78.8 503
23:31:48 16 991 0 0 S 0 79.3 489
23:34:47 16 991 0 0 S 0 79.6 484
23:37:44 16 991 0 0 S 0 79.6 480
23:40:50 16 991 0 0 SO 0 80.5 480
23:43:48 16 991 0 0 S 0 80.9 480
23:46:48 16 991 0 0 S 0 81.2 483
23:49:49 16 991 0 0 SO 0 81.7 483
23:52:47 16 991 0 1 S 0 82.2 492
23:55:48 16 991 0 0 SO 0 82.7 506
23:58:47 16 991 0 0 SO 0 82.6 509

Letzte Änderung : 04-Jan-2022
Copyright Jens Köhler, Wolfsburg, Obere Dorfstraße 10d